Terug naar catalogus

STARLINK-35991

ActiefCommunicatieVLEO
NORAD 66861·PAYLOAD·🇺🇸 United States

Gelanceerd Dec 2, 2025 vanaf Cape Canaveral Space Force Station

Loading…

Volgende Passages (komende 24 uur)

TLE

VersSource: CelesTrak SupGP

Epoch: Sep 15, 2026, 02:58 UTC

1 66861C 25281P   26258.12409722  .00037066  00000+0  13423-2 0  2589
2 66861  43.0014 353.3554 0001425 262.0687 342.3309 15.27565293    12

Volg STARLINK-35991 in realtime met AllMySat

Download on the App Store